Time,TemperatureF,DewpointF,PressureIn,WindDirection,WindDirectionDegrees,WindSpeedMPH,WindSpeedGustMPH,Humidity,HourlyPrecipIn,Conditions,Clouds,dailyrainin,SoftwareType,DateUTC
2014-10-01 00:04:00,57.2,56.3,30.02,NNE,26,0.0,0.0,97,0.00,,,0.00,WeatherCatV2.00B4475,2014-10-01 04:04:00,
2014-10-01 00:09:00,57.2,56.1,30.02,NNE,26,0.0,0.0,96,0.00,,,0.00,WeatherCatV2.00B4475,2014-10-01 04:09:00,
2014-10-01 00:14:00,57.2,56.3,30.02,NNE,26,0.0,0.0,97,0.00,,,0.00,WeatherCatV2.00B4475,2014-10-01 04:14:00,
2014-10-01 00:20:00,57.2,56.1,30.02,NNE,26,0.0,0.0,96,0.00,,,0.00,WeatherCatV2.00B4475,2014-10-01 04:20:00,
2014-10-01 00:25:00,57.2,56.1,30.02,NNE,26,0.0,1.0,96,0.00,,,0.00,WeatherCatV2.00B4475,2014-10-01 04:25:00,
2014-10-01 00:30:00,57.2,56.1,30.02,NNE,26,0.0,0.0,96,0.00,,,0.00,WeatherCatV2.00B4475,2014-10-01 04:30:00,
2014-10-01 00:35:00,57.2,56.1,30.02,NNE,26,0.0,0.0,96,0.00,,,0.00,WeatherCatV2.00B4475,2014-10-01 04:35:00,
2014-10-01 00:40:00,57.2,56.1,30.02,NNE,26,0.0,0.0,96,0.00,,,0.00,WeatherCatV2.00B4475,2014-10-01 04:40:00,
2014-10-01 00:45:00,57.2,56.1,30.02,NNE,26,0.0,0.0,96,0.00,,,0.00,WeatherCatV2.00B4475,2014-10-01 04:45:00,
2014-10-01 00:50:00,57.2,56.1,30.02,NNE,26,0.0,0.0,96,0.00,,,0.00,WeatherCatV2.00B4475,2014-10-01 04:50:00,
2014-10-01 00:52:00,57.2,56.1,30.02,NNE,26,0.0,0.0,96,0.00,,,0.00,WeatherCatV2.00B4475,2014-10-01 04:52:00,
2014-10-01 00:57:00,57.2,56.1,30.02,NNE,26,0.0,0.0,96,0.00,,,0.00,WeatherCatV2.00B4475,2014-10-01 04:57:00,
2014-10-01 01:02:00,57.2,56.3,30.03,NNE,26,0.0,0.0,97,0.00,,,0.00,WeatherCatV2.00B4475,2014-10-01 05:02:00,
2014-10-01 01:07:00,57.2,56.3,30.03,NNE,26,0.0,0.0,97,0.00,,,0.00,WeatherCatV2.00B4475,2014-10-01 05:07:00,
2014-10-01 01:12:00,57.3,56.5,30.03,NNE,26,0.0,0.0,97,0.00,,,0.00,WeatherCatV2.00B4475,2014-10-01 05:12:00,
2014-10-01 01:16:00,57.3,56.5,30.03,NNE,26,0.0,0.0,97,0.00,,,0.00,WeatherCatV2.00B4475,2014-10-01 05:16:00,
2014-10-01 01:21:00,57.3,56.5,30.03,NNE,26,0.0,0.0,97,0.00,,,0.00,WeatherCatV2.00B4475,2014-10-01 05:21:00,
2014-10-01 01:27:00,57.2,56.3,30.03,NNE,26,0.0,1.0,97,0.00,,,0.00,WeatherCatV2.00B4475,2014-10-01 05:27:00,
2014-10-01 01:32:00,57.3,56.5,30.03,NNE,30,0.0,1.0,97,0.00,,,0.00,WeatherCatV2.00B4475,2014-10-01 05:32:00,
2014-10-01 01:37:00,57.3,56.5,30.03,NNE,30,0.0,0.0,97,0.00,,,0.00,WeatherCatV2.00B4475,2014-10-01 05:37:00,
2014-10-01 01:42:00,57.3,56.5,30.03,NNE,30,0.0,0.0,97,0.00,,,0.00,WeatherCatV2.00B4475,2014-10-01 05:42:00,
2014-10-01 01:47:00,57.2,56.3,30.03,NNE,23,1.0,2.0,97,0.00,,,0.00,WeatherCatV2.00B4475,2014-10-01 05:47:00,
2014-10-01 01:50:00,57.2,56.1,30.03,NNE,23,1.0,1.0,96,0.00,,,0.00,WeatherCatV2.00B4475,2014-10-01 05:50:00,
2014-10-01 01:55:00,57.2,56.1,30.02,North,355,1.0,2.0,96,0.00,,,0.00,WeatherCatV2.00B4475,2014-10-01 05:55:00,
2014-10-01 02:00:00,57.2,56.1,30.02,North,350,2.0,3.0,96,0.00,,,0.01,WeatherCatV2.00B4475,2014-10-01 06:00:00,
2014-10-01 02:13:00,57.2,56.1,30.02,North,0,3.0,3.0,96,0.00,,,0.01,WeatherCatV2.00B4475,2014-10-01 06:13:00,
2014-10-01 02:18:00,57.2,56.1,30.02,North,5,2.0,2.0,96,0.00,,,0.01,WeatherCatV2.00B4475,2014-10-01 06:18:00,
2014-10-01 02:23:00,57.2,56.1,30.02,North,0,1.0,3.0,96,0.00,,,0.01,WeatherCatV2.00B4475,2014-10-01 06:23:00,
2014-10-01 02:28:00,57.1,56.0,30.02,NNE,32,1.0,4.0,96,0.00,,,0.01,WeatherCatV2.00B4475,2014-10-01 06:28:00,
2014-10-01 02:33:00,57.1,56.0,30.01,North,5,2.0,2.0,96,0.00,,,0.02,WeatherCatV2.00B4475,2014-10-01 06:33:00,
2014-10-01 02:38:00,57.0,55.9,30.01,NNE,19,1.0,3.0,96,0.00,,,0.02,WeatherCatV2.00B4475,2014-10-01 06:38:00,
2014-10-01 02:43:00,57.0,55.9,30.01,NNE,25,2.0,2.0,96,0.00,,,0.02,WeatherCatV2.00B4475,2014-10-01 06:43:00,
2014-10-01 02:48:00,57.0,55.9,30.01,North,5,0.0,1.0,96,0.04,,,0.03,WeatherCatV2.00B4475,2014-10-01 06:48:00,
2014-10-01 02:53:00,57.0,55.9,30.01,West,281,0.0,0.0,96,0.04,,,0.03,WeatherCatV2.00B4475,2014-10-01 06:53:00,
2014-10-01 02:58:00,56.9,55.8,30.01,NNE,15,1.0,3.0,96,0.04,,,0.03,WeatherCatV2.00B4475,2014-10-01 06:58:00,
2014-10-01 03:03:00,56.9,55.8,30.01,NNE,15,0.0,0.0,96,0.04,,,0.04,WeatherCatV2.00B4475,2014-10-01 07:03:00,
2014-10-01 03:09:00,56.9,55.8,30.01,NNE,15,1.0,1.0,96,0.04,,,0.04,WeatherCatV2.00B4475,2014-10-01 07:09:00,
2014-10-01 03:14:00,56.9,55.8,30.01,NNE,15,1.0,1.0,96,0.04,,,0.04,WeatherCatV2.00B4475,2014-10-01 07:14:00,
2014-10-01 03:19:00,56.8,56.0,30.00,North,5,0.0,1.0,97,0.04,,,0.04,WeatherCatV2.00B4475,2014-10-01 07:19:00,
2014-10-01 03:24:00,56.8,56.0,30.01,North,5,1.0,2.0,97,0.00,,,0.04,WeatherCatV2.00B4475,2014-10-01 07:24:00,
2014-10-01 03:29:00,56.8,56.0,30.01,NNW,330,2.0,2.0,97,0.00,,,0.04,WeatherCatV2.00B4475,2014-10-01 07:29:00,
2014-10-01 03:34:00,56.8,55.7,30.01,WNW,286,1.0,3.0,96,0.00,,,0.04,WeatherCatV2.00B4475,2014-10-01 07:34:00,
2014-10-01 03:39:00,56.7,55.9,30.01,NNW,329,1.0,2.0,97,0.00,,,0.04,WeatherCatV2.00B4475,2014-10-01 07:39:00,
2014-10-01 03:44:00,56.7,55.6,30.00,North,5,4.0,5.0,96,0.00,,,0.04,WeatherCatV2.00B4475,2014-10-01 07:44:00,
2014-10-01 03:46:00,56.6,55.5,30.00,North,9,1.0,5.0,96,0.00,,,0.04,WeatherCatV2.00B4475,2014-10-01 07:46:00,
2014-10-01 03:51:00,56.6,55.5,30.00,NNW,331,2.0,6.0,96,0.00,,,0.04,WeatherCatV2.00B4475,2014-10-01 07:51:00,
2014-10-01 03:56:00,56.6,55.5,30.00,North,5,0.0,1.0,96,0.00,,,0.04,WeatherCatV2.00B4475,2014-10-01 07:56:00,
2014-10-01 04:01:00,56.6,55.5,30.01,NNE,16,2.0,3.0,96,0.00,,,0.04,WeatherCatV2.00B4475,2014-10-01 08:01:00,
2014-10-01 04:07:00,56.6,55.5,30.01,NNE,13,2.0,5.0,96,0.00,,,0.04,WeatherCatV2.00B4475,2014-10-01 08:07:00,
2014-10-01 04:12:00,56.6,55.5,30.01,North,11,1.0,2.0,96,0.00,,,0.04,WeatherCatV2.00B4475,2014-10-01 08:12:00,
2014-10-01 04:17:00,56.6,55.5,30.01,North,5,1.0,4.0,96,0.00,,,0.04,WeatherCatV2.00B4475,2014-10-01 08:17:00,
2014-10-01 04:22:00,56.6,55.5,30.01,North,5,1.0,5.0,96,0.00,,,0.04,WeatherCatV2.00B4475,2014-10-01 08:22:00,
2014-10-01 04:27:00,56.6,55.5,30.01,North,349,0.0,1.0,96,0.00,,,0.04,WeatherCatV2.00B4475,2014-10-01 08:27:00,
2014-10-01 04:32:00,56.6,55.5,30.01,North,9,0.0,0.0,96,0.00,,,0.04,WeatherCatV2.00B4475,2014-10-01 08:32:00,
2014-10-01 04:37:00,56.6,55.5,30.01,NNW,339,0.0,2.0,96,0.00,,,0.04,WeatherCatV2.00B4475,2014-10-01 08:37:00,
2014-10-01 04:42:00,56.6,55.5,30.02,NE,38,1.0,4.0,96,0.00,,,0.04,WeatherCatV2.00B4475,2014-10-01 08:42:00,
2014-10-01 04:47:00,56.6,55.5,30.02,NE,38,0.0,0.0,96,0.00,,,0.04,WeatherCatV2.00B4475,2014-10-01 08:47:00,
2014-10-01 04:52:00,56.5,55.4,30.02,NE,43,2.0,4.0,96,0.00,,,0.04,WeatherCatV2.00B4475,2014-10-01 08:52:00,
2014-10-01 04:57:00,56.6,55.5,30.02,NNE,22,1.0,4.0,96,0.00,,,0.04,WeatherCatV2.00B4475,2014-10-01 08:57:00,
2014-10-01 05:03:00,56.6,55.5,30.02,NNE,26,0.0,1.0,96,0.00,,,0.04,WeatherCatV2.00B4475,2014-10-01 09:03:00,
2014-10-01 05:08:00,56.5,55.4,30.02,NNW,335,2.0,5.0,96,0.00,,,0.04,WeatherCatV2.00B4475,2014-10-01 09:08:00,
2014-10-01 05:13:00,56.5,55.4,30.02,NNW,334,2.0,4.0,96,0.00,,,0.04,WeatherCatV2.00B4475,2014-10-01 09:13:00,
2014-10-01 05:18:00,56.5,55.4,30.02,NNW,334,1.0,2.0,96,0.00,,,0.04,WeatherCatV2.00B4475,2014-10-01 09:18:00,
2014-10-01 05:23:00,56.5,55.4,30.02,North,0,0.0,3.0,96,0.00,,,0.04,WeatherCatV2.00B4475,2014-10-01 09:23:00,
2014-10-01 05:28:00,56.5,55.4,30.02,NNE,12,0.0,2.0,96,0.00,,,0.04,WeatherCatV2.00B4475,2014-10-01 09:28:00,
2014-10-01 05:33:00,56.5,55.4,30.02,North,9,2.0,3.0,96,0.00,,,0.04,WeatherCatV2.00B4475,2014-10-01 09:33:00,
2014-10-01 05:38:00,56.4,55.3,30.02,North,355,1.0,3.0,96,0.00,,,0.04,WeatherCatV2.00B4475,2014-10-01 09:38:00,
2014-10-01 05:43:00,56.4,55.3,30.02,NNE,26,1.0,2.0,96,0.00,,,0.04,WeatherCatV2.00B4475,2014-10-01 09:43:00,
2014-10-01 05:46:00,56.4,55.3,30.02,North,5,2.0,3.0,96,0.00,,,0.04,WeatherCatV2.00B4475,2014-10-01 09:46:00,
2014-10-01 05:51:00,56.4,55.3,30.02,North,355,0.0,2.0,96,0.00,,,0.04,WeatherCatV2.00B4475,2014-10-01 09:51:00,
2014-10-01 05:56:00,56.4,55.3,30.02,North,5,2.0,2.0,96,0.00,,,0.04,WeatherCatV2.00B4475,2014-10-01 09:56:00,
2014-10-01 06:01:00,56.4,55.3,30.03,NE,34,0.0,1.0,96,0.00,,,0.04,WeatherCatV2.00B4475,2014-10-01 10:01:00,
2014-10-01 06:06:00,56.4,55.3,30.03,North,11,1.0,1.0,96,0.00,,,0.04,WeatherCatV2.00B4475,2014-10-01 10:06:00,
2014-10-01 06:11:00,56.4,55.3,30.03,North,9,1.0,3.0,96,0.00,,,0.04,WeatherCatV2.00B4475,2014-10-01 10:11:00,
2014-10-01 06:16:00,56.4,55.3,30.03,North,350,1.0,3.0,96,0.00,,,0.04,WeatherCatV2.00B4475,2014-10-01 10:16:00,
2014-10-01 06:21:00,56.4,55.3,30.03,NNW,331,0.0,3.0,96,0.00,,,0.04,WeatherCatV2.00B4475,2014-10-01 10:21:00,
2014-10-01 06:26:00,56.4,55.3,30.03,North,11,1.0,4.0,96,0.00,,,0.04,WeatherCatV2.00B4475,2014-10-01 10:26:00,
2014-10-01 06:31:00,56.4,55.3,30.03,NNW,345,0.0,1.0,96,0.00,,,0.04,WeatherCatV2.00B4475,2014-10-01 10:31:00,
2014-10-01 06:37:00,56.4,55.3,30.03,North,350,0.0,2.0,96,0.00,,,0.04,WeatherCatV2.00B4475,2014-10-01 10:37:00,
2014-10-01 06:42:00,56.4,55.3,30.03,North,5,1.0,3.0,96,0.00,,,0.04,WeatherCatV2.00B4475,2014-10-01 10:42:00,
2014-10-01 06:47:00,56.4,55.3,30.03,North,350,2.0,4.0,96,0.00,,,0.04,WeatherCatV2.00B4475,2014-10-01 10:47:00,
2014-10-01 06:52:00,56.4,55.3,30.04,NNE,14,2.0,2.0,96,0.00,,,0.04,WeatherCatV2.00B4475,2014-10-01 10:52:00,
2014-10-01 06:57:00,56.4,55.3,30.04,NNW,340,2.0,2.0,96,0.00,,,0.04,WeatherCatV2.00B4475,2014-10-01 10:57:00,
2014-10-01 07:02:00,56.4,55.3,30.04,NNW,340,0.0,1.0,96,0.00,,,0.04,WeatherCatV2.00B4475,2014-10-01 11:02:00,
2014-10-01 07:07:00,56.4,55.3,30.04,NNE,32,1.0,2.0,96,0.00,,,0.04,WeatherCatV2.00B4475,2014-10-01 11:07:00,
2014-10-01 07:12:00,56.4,55.3,30.04,NE,52,2.0,3.0,96,0.00,,,0.04,WeatherCatV2.00B4475,2014-10-01 11:12:00,
2014-10-01 07:17:00,56.4,55.3,30.04,NW,317,2.0,3.0,96,0.00,,,0.04,WeatherCatV2.00B4475,2014-10-01 11:17:00,
2014-10-01 07:22:00,56.4,55.3,30.05,NW,311,0.0,1.0,96,0.00,,,0.04,WeatherCatV2.00B4475,2014-10-01 11:22:00,
2014-10-01 07:27:00,56.4,55.3,30.05,NNE,17,0.0,3.0,96,0.00,,,0.04,WeatherCatV2.00B4475,2014-10-01 11:27:00,
2014-10-01 07:32:00,56.4,55.3,30.05,NNE,17,0.0,0.0,96,0.00,,,0.04,WeatherCatV2.00B4475,2014-10-01 11:32:00,
2014-10-01 07:38:00,56.4,55.3,30.05,NNE,19,0.0,2.0,96,0.00,,,0.04,WeatherCatV2.00B4475,2014-10-01 11:38:00,
2014-10-01 07:43:00,56.4,55.3,30.05,North,350,2.0,2.0,96,0.00,,,0.04,WeatherCatV2.00B4475,2014-10-01 11:43:00,
2014-10-01 07:45:00,56.5,55.4,30.05,NNW,342,0.0,1.0,96,0.00,,,0.04,WeatherCatV2.00B4475,2014-10-01 11:45:00,
2014-10-01 07:50:00,56.5,55.4,30.05,NE,39,1.0,3.0,96,0.00,,,0.04,WeatherCatV2.00B4475,2014-10-01 11:50:00,
2014-10-01 07:55:00,56.5,55.4,30.05,NNW,337,3.0,3.0,96,0.00,,,0.04,WeatherCatV2.00B4475,2014-10-01 11:55:00,
2014-10-01 08:00:00,56.5,55.4,30.05,North,9,1.0,2.0,96,0.00,,,0.04,WeatherCatV2.00B4475,2014-10-01 12:00:00,
2014-10-01 08:05:00,56.5,55.4,30.05,North,5,2.0,2.0,96,0.00,,,0.04,WeatherCatV2.00B4475,2014-10-01 12:05:00,
2014-10-01 08:10:00,56.4,55.3,30.05,NNE,23,3.0,6.0,96,0.00,,,0.04,WeatherCatV2.00B4475,2014-10-01 12:10:00,
2014-10-01 08:15:00,56.4,55.3,30.05,NNE,21,1.0,2.0,96,0.00,,,0.04,WeatherCatV2.00B4475,2014-10-01 12:15:00,
2014-10-01 08:20:00,56.4,55.3,30.05,North,350,2.0,3.0,96,0.00,,,0.04,WeatherCatV2.00B4475,2014-10-01 12:20:00,
2014-10-01 08:26:00,56.4,55.3,30.05,NNW,347,1.0,7.0,96,0.00,,,0.04,WeatherCatV2.00B4475,2014-10-01 12:26:00,
2014-10-01 08:31:00,56.4,55.6,30.06,NE,39,2.0,2.0,97,0.00,,,0.04,WeatherCatV2.00B4475,2014-10-01 12:31:00,
2014-10-01 08:36:00,56.4,55.6,30.06,NNW,337,0.0,2.0,97,0.00,,,0.04,WeatherCatV2.00B4475,2014-10-01 12:36:00,
2014-10-01 08:41:00,56.3,55.5,30.06,NNE,21,2.0,5.0,97,0.00,,,0.04,WeatherCatV2.00B4475,2014-10-01 12:41:00,
2014-10-01 08:46:00,56.3,55.5,30.06,NE,44,2.0,3.0,97,0.00,,,0.04,WeatherCatV2.00B4475,2014-10-01 12:46:00,
2014-10-01 08:51:00,56.2,55.4,30.06,North,355,0.0,1.0,97,0.00,,,0.04,WeatherCatV2.00B4475,2014-10-01 12:51:00,
2014-10-01 08:56:00,56.3,55.5,30.06,NE,53,0.0,3.0,97,0.00,,,0.04,WeatherCatV2.00B4475,2014-10-01 12:56:00,
2014-10-01 09:01:00,56.2,55.4,30.06,North,350,2.0,4.0,97,0.00,,,0.04,WeatherCatV2.00B4475,2014-10-01 13:01:00,
2014-10-01 09:06:00,56.2,55.4,30.07,NNE,23,1.0,1.0,97,0.00,,,0.04,WeatherCatV2.00B4475,2014-10-01 13:06:00,
2014-10-01 09:11:00,56.3,55.5,30.07,NE,38,0.0,2.0,97,0.00,,,0.05,WeatherCatV2.00B4475,2014-10-01 13:11:00,
2014-10-01 09:16:00,56.3,55.5,30.06,North,355,2.0,2.0,97,0.00,,,0.05,WeatherCatV2.00B4475,2014-10-01 13:16:00,
2014-10-01 09:22:00,56.4,55.6,30.07,NNW,347,6.0,8.0,97,0.00,,,0.05,WeatherCatV2.00B4475,2014-10-01 13:22:00,
2014-10-01 09:27:00,56.4,55.6,30.06,NNE,15,3.0,7.0,97,0.00,,,0.05,WeatherCatV2.00B4475,2014-10-01 13:27:00,
2014-10-01 09:32:00,56.5,55.7,30.06,NE,56,1.0,4.0,97,0.00,,,0.05,WeatherCatV2.00B4475,2014-10-01 13:32:00,
2014-10-01 09:37:00,56.6,55.8,30.06,ESE,110,0.0,2.0,97,0.00,,,0.05,WeatherCatV2.00B4475,2014-10-01 13:37:00,
2014-10-01 09:42:00,56.6,55.8,30.06,NNE,12,5.0,5.0,97,0.00,,,0.05,WeatherCatV2.00B4475,2014-10-01 13:42:00,
2014-10-01 09:44:00,56.6,55.8,30.06,NNW,348,2.0,5.0,97,0.00,,,0.05,WeatherCatV2.00B4475,2014-10-01 13:44:00,
2014-10-01 09:49:00,56.7,55.9,30.07,NNE,17,5.0,8.0,97,0.00,,,0.05,WeatherCatV2.00B4475,2014-10-01 13:49:00,
2014-10-01 09:54:00,56.7,55.6,30.07,NNW,327,1.0,1.0,96,0.00,,,0.05,WeatherCatV2.00B4475,2014-10-01 13:54:00,
2014-10-01 09:59:00,56.8,56.0,30.07,SW,217,0.0,1.0,97,0.00,,,0.05,WeatherCatV2.00B4475,2014-10-01 13:59:00,
2014-10-01 10:04:00,56.8,55.7,30.07,NE,55,1.0,7.0,96,0.00,,,0.05,WeatherCatV2.00B4475,2014-10-01 14:04:00,
2014-10-01 10:09:00,56.8,55.7,30.07,NE,38,2.0,2.0,96,0.00,,,0.05,WeatherCatV2.00B4475,2014-10-01 14:09:00,
2014-10-01 10:11:00,56.8,55.7,30.07,NE,40,0.0,2.0,96,0.00,,,0.05,WeatherCatV2.00B4475,2014-10-01 14:11:00,
2014-10-01 10:16:00,56.8,56.0,30.07,NNW,331,0.0,1.0,97,0.00,,,0.05,WeatherCatV2.00B4475,2014-10-01 14:16:00,
2014-10-01 10:21:00,56.8,55.7,30.07,NNW,334,1.0,2.0,96,0.00,,,0.05,WeatherCatV2.00B4475,2014-10-01 14:21:00,
2014-10-01 10:26:00,56.8,55.7,30.07,NNW,347,4.0,6.0,96,0.00,,,0.05,WeatherCatV2.00B4475,2014-10-01 14:26:00,
2014-10-01 10:31:00,56.9,55.8,30.07,NW,313,1.0,2.0,96,0.00,,,0.05,WeatherCatV2.00B4475,2014-10-01 14:31:00,
2014-10-01 10:36:00,56.9,55.8,30.07,ENE,78,3.0,5.0,96,0.00,,,0.05,WeatherCatV2.00B4475,2014-10-01 14:36:00,
2014-10-01 10:42:00,57.0,55.9,30.07,NNE,26,3.0,4.0,96,0.00,,,0.05,WeatherCatV2.00B4475,2014-10-01 14:42:00,
2014-10-01 10:47:00,57.0,55.9,30.07,ENE,67,0.0,2.0,96,0.00,,,0.05,WeatherCatV2.00B4475,2014-10-01 14:47:00,
2014-10-01 10:52:00,57.0,55.9,30.08,NNE,19,2.0,6.0,96,0.00,,,0.05,WeatherCatV2.00B4475,2014-10-01 14:52:00,
2014-10-01 10:57:00,57.1,56.0,30.08,NNE,33,1.0,1.0,96,0.00,,,0.05,WeatherCatV2.00B4475,2014-10-01 14:57:00,
2014-10-01 11:02:00,57.1,56.0,30.08,NNE,33,1.0,1.0,96,0.00,,,0.05,WeatherCatV2.00B4475,2014-10-01 15:02:00,
2014-10-01 11:07:00,57.3,56.5,30.08,NNE,33,0.0,1.0,97,0.00,,,0.05,WeatherCatV2.00B4475,2014-10-01 15:07:00,
2014-10-01 11:12:00,57.3,56.2,30.08,North,10,2.0,3.0,96,0.00,,,0.05,WeatherCatV2.00B4475,2014-10-01 15:12:00,
2014-10-01 11:17:00,57.2,56.1,30.08,North,9,2.0,4.0,96,0.00,,,0.05,WeatherCatV2.00B4475,2014-10-01 15:17:00,
2014-10-01 11:22:00,57.2,56.1,30.08,ENE,58,2.0,3.0,96,0.00,,,0.05,WeatherCatV2.00B4475,2014-10-01 15:22:00,
2014-10-01 11:27:00,57.2,56.1,30.08,North,350,2.0,3.0,96,0.00,,,0.05,WeatherCatV2.00B4475,2014-10-01 15:27:00,
2014-10-01 11:32:00,57.2,56.1,30.08,NE,34,0.0,4.0,96,0.00,,,0.05,WeatherCatV2.00B4475,2014-10-01 15:32:00,
2014-10-01 11:38:00,57.3,56.2,30.08,NNE,22,0.0,2.0,96,0.00,,,0.05,WeatherCatV2.00B4475,2014-10-01 15:38:00,
2014-10-01 11:41:00,57.3,56.2,30.08,NNW,336,2.0,4.0,96,0.00,,,0.05,WeatherCatV2.00B4475,2014-10-01 15:41:00,
2014-10-01 11:46:00,57.3,56.2,30.08,ENE,57,1.0,3.0,96,0.00,,,0.06,WeatherCatV2.00B4475,2014-10-01 15:46:00,
2014-10-01 11:51:00,57.2,56.1,30.08,NE,34,1.0,1.0,96,0.00,,,0.06,WeatherCatV2.00B4475,2014-10-01 15:51:00,
2014-10-01 11:56:00,57.2,56.1,30.08,NNE,15,4.0,6.0,96,0.00,,,0.06,WeatherCatV2.00B4475,2014-10-01 15:56:00,
2014-10-01 12:01:00,57.2,56.1,30.08,WNW,303,1.0,2.0,96,0.00,,,0.06,WeatherCatV2.00B4475,2014-10-01 16:01:00,
2014-10-01 12:07:00,57.2,56.1,30.08,WNW,289,0.0,4.0,96,0.00,,,0.06,WeatherCatV2.00B4475,2014-10-01 16:07:00,
2014-10-01 12:12:00,57.2,56.3,30.08,North,5,2.0,2.0,97,0.00,,,0.07,WeatherCatV2.00B4475,2014-10-01 16:12:00,
2014-10-01 12:17:00,57.2,56.3,30.08,North,351,1.0,4.0,97,0.00,,,0.07,WeatherCatV2.00B4475,2014-10-01 16:17:00,
2014-10-01 12:22:00,57.1,56.0,30.08,NE,45,1.0,2.0,96,0.00,,,0.07,WeatherCatV2.00B4475,2014-10-01 16:22:00,
2014-10-01 12:27:00,57.1,56.0,30.08,ENE,65,3.0,4.0,96,0.00,,,0.07,WeatherCatV2.00B4475,2014-10-01 16:27:00,
2014-10-01 12:32:00,57.1,56.0,30.08,NE,35,1.0,4.0,96,0.00,,,0.07,WeatherCatV2.00B4475,2014-10-01 16:32:00,
2014-10-01 12:37:00,57.1,56.2,30.08,NNW,327,0.0,3.0,97,0.00,,,0.07,WeatherCatV2.00B4475,2014-10-01 16:37:00,
2014-10-01 12:42:00,57.1,56.2,30.08,NNE,23,3.0,4.0,97,0.00,,,0.07,WeatherCatV2.00B4475,2014-10-01 16:42:00,
2014-10-01 12:47:00,57.1,56.2,30.08,NE,52,1.0,4.0,97,0.00,,,0.07,WeatherCatV2.00B4475,2014-10-01 16:47:00,
2014-10-01 12:52:00,57.1,56.2,30.08,NNE,26,2.0,4.0,97,0.00,,,0.08,WeatherCatV2.00B4475,2014-10-01 16:52:00,
2014-10-01 12:57:00,57.0,56.2,30.08,NE,50,5.0,5.0,97,0.00,,,0.08,WeatherCatV2.00B4475,2014-10-01 16:57:00,
2014-10-01 13:03:00,57.0,56.2,30.08,NNW,329,0.0,3.0,97,0.00,,,0.08,WeatherCatV2.00B4475,2014-10-01 17:03:00,
2014-10-01 13:08:00,56.9,56.1,30.08,ENE,67,0.0,5.0,97,0.00,,,0.08,WeatherCatV2.00B4475,2014-10-01 17:08:00,
2014-10-01 13:13:00,57.0,56.2,30.08,ENE,64,0.0,2.0,97,0.00,,,0.09,WeatherCatV2.00B4475,2014-10-01 17:13:00,
2014-10-01 13:18:00,57.0,56.2,30.08,NNE,17,1.0,2.0,97,0.00,,,0.09,WeatherCatV2.00B4475,2014-10-01 17:18:00,
2014-10-01 13:23:00,57.0,56.2,30.08,North,355,3.0,3.0,97,0.00,,,0.09,WeatherCatV2.00B4475,2014-10-01 17:23:00,
2014-10-01 13:28:00,56.9,56.1,30.08,ESE,104,6.0,6.0,97,0.00,,,0.09,WeatherCatV2.00B4475,2014-10-01 17:28:00,
2014-10-01 13:33:00,56.9,56.1,30.08,ESE,121,1.0,1.0,97,0.00,,,0.09,WeatherCatV2.00B4475,2014-10-01 17:33:00,
2014-10-01 13:38:00,56.8,56.0,30.07,ENE,59,2.0,3.0,97,0.00,,,0.09,WeatherCatV2.00B4475,2014-10-01 17:38:00,
2014-10-01 13:40:00,56.8,55.7,30.07,North,5,3.0,4.0,96,0.00,,,0.09,WeatherCatV2.00B4475,2014-10-01 17:40:00,
2014-10-01 13:45:00,56.7,55.9,30.07,ENE,65,5.0,5.0,97,0.00,,,0.10,WeatherCatV2.00B4475,2014-10-01 17:45:00,
2014-10-01 13:50:00,56.8,56.0,30.07,NNE,28,3.0,5.0,97,0.00,,,0.10,WeatherCatV2.00B4475,2014-10-01 17:50:00,
2014-10-01 13:55:00,56.8,56.0,30.07,North,349,3.0,4.0,97,0.00,,,0.10,WeatherCatV2.00B4475,2014-10-01 17:55:00,
2014-10-01 14:01:00,56.9,56.1,30.07,WNW,290,1.0,1.0,97,0.00,,,0.10,WeatherCatV2.00B4475,2014-10-01 18:01:00,
2014-10-01 14:06:00,56.9,56.1,30.06,ENE,62,3.0,8.0,97,0.00,,,0.10,WeatherCatV2.00B4475,2014-10-01 18:06:00,
2014-10-01 14:11:00,57.0,56.2,30.06,NNE,26,3.0,3.0,97,0.00,,,0.10,WeatherCatV2.00B4475,2014-10-01 18:11:00,
2014-10-01 14:16:00,57.0,56.2,30.06,NE,46,1.0,3.0,97,0.00,,,0.10,WeatherCatV2.00B4475,2014-10-01 18:16:00,
2014-10-01 14:21:00,57.1,56.2,30.06,NNW,331,3.0,3.0,97,0.00,,,0.10,WeatherCatV2.00B4475,2014-10-01 18:21:00,
2014-10-01 14:26:00,57.2,56.3,30.06,NNE,31,2.0,2.0,97,0.00,,,0.10,WeatherCatV2.00B4475,2014-10-01 18:26:00,
2014-10-01 14:31:00,57.2,56.3,30.06,NNE,14,0.0,4.0,97,0.00,,,0.10,WeatherCatV2.00B4475,2014-10-01 18:31:00,
2014-10-01 14:36:00,57.3,56.5,30.06,WNW,303,0.0,3.0,97,0.00,,,0.10,WeatherCatV2.00B4475,2014-10-01 18:36:00,
2014-10-01 14:41:00,57.2,56.1,30.06,NNW,340,1.0,4.0,96,0.00,,,0.11,WeatherCatV2.00B4475,2014-10-01 18:41:00,
2014-10-01 14:46:00,57.1,56.0,30.06,NNE,12,2.0,4.0,96,0.00,,,0.11,WeatherCatV2.00B4475,2014-10-01 18:46:00,
2014-10-01 14:51:00,57.1,56.0,30.06,NNE,28,2.0,8.0,96,0.00,,,0.11,WeatherCatV2.00B4475,2014-10-01 18:51:00,
2014-10-01 14:57:00,57.1,56.0,30.06,NE,53,5.0,5.0,96,0.00,,,0.11,WeatherCatV2.00B4475,2014-10-01 18:57:00,
2014-10-01 15:02:00,57.1,56.0,30.06,NE,46,5.0,7.0,96,0.00,,,0.11,WeatherCatV2.00B4475,2014-10-01 19:02:00,
2014-10-01 15:07:00,57.1,56.0,30.06,East,98,3.0,5.0,96,0.00,,,0.11,WeatherCatV2.00B4475,2014-10-01 19:07:00,
2014-10-01 15:12:00,57.1,56.0,30.05,NNE,20,2.0,2.0,96,0.00,,,0.11,WeatherCatV2.00B4475,2014-10-01 19:12:00,
2014-10-01 15:17:00,57.1,56.0,30.05,ENE,64,2.0,3.0,96,0.00,,,0.11,WeatherCatV2.00B4475,2014-10-01 19:17:00,
2014-10-01 15:22:00,57.1,56.0,30.05,NW,309,2.0,4.0,96,0.00,,,0.11,WeatherCatV2.00B4475,2014-10-01 19:22:00,
2014-10-01 15:27:00,57.0,55.9,30.05,NE,55,0.0,3.0,96,0.00,,,0.12,WeatherCatV2.00B4475,2014-10-01 19:27:00,
2014-10-01 15:32:00,57.1,56.0,30.05,NNE,23,1.0,5.0,96,0.00,,,0.12,WeatherCatV2.00B4475,2014-10-01 19:32:00,
2014-10-01 15:37:00,57.1,56.0,30.05,NE,49,3.0,3.0,96,0.00,,,0.12,WeatherCatV2.00B4475,2014-10-01 19:37:00,
2014-10-01 15:39:00,57.1,56.0,30.05,NNE,24,2.0,4.0,96,0.00,,,0.12,WeatherCatV2.00B4475,2014-10-01 19:39:00,
2014-10-01 15:45:00,57.1,56.0,30.05,NNE,26,3.0,6.0,96,0.00,,,0.12,WeatherCatV2.00B4475,2014-10-01 19:45:00,
2014-10-01 15:50:00,57.1,56.0,30.05,NNE,13,2.0,5.0,96,0.00,,,0.12,WeatherCatV2.00B4475,2014-10-01 19:50:00,
2014-10-01 15:55:00,57.0,55.9,30.05,NNW,348,0.0,3.0,96,0.00,,,0.12,WeatherCatV2.00B4475,2014-10-01 19:55:00,
2014-10-01 16:00:00,57.0,55.9,30.05,NE,45,2.0,3.0,96,0.00,,,0.12,WeatherCatV2.00B4475,2014-10-01 20:00:00,
2014-10-01 16:05:00,56.9,55.8,30.05,NE,35,2.0,4.0,96,0.00,,,0.12,WeatherCatV2.00B4475,2014-10-01 20:05:00,
2014-10-01 16:10:00,57.0,55.9,30.05,South,173,2.0,3.0,96,0.00,,,0.12,WeatherCatV2.00B4475,2014-10-01 20:10:00,
2014-10-01 16:15:00,57.0,55.9,30.05,NE,52,2.0,4.0,96,0.00,,,0.12,WeatherCatV2.00B4475,2014-10-01 20:15:00,
2014-10-01 16:19:00,57.0,55.9,30.06,NNE,19,3.0,10.0,96,0.00,,,0.12,WeatherCatV2.00B4475,2014-10-01 20:19:00,
2014-10-01 16:24:00,57.0,55.9,30.06,NNE,17,2.0,4.0,96,0.00,,,0.12,WeatherCatV2.00B4475,2014-10-01 20:24:00,
2014-10-01 16:29:00,57.0,55.6,30.06,NNE,19,1.0,7.0,95,0.00,,,0.12,WeatherCatV2.00B4475,2014-10-01 20:29:00,
2014-10-01 16:34:00,57.0,55.9,30.06,North,10,1.0,2.0,96,0.00,,,0.12,WeatherCatV2.00B4475,2014-10-01 20:34:00,
2014-10-01 16:39:00,56.9,55.5,30.06,NE,39,3.0,4.0,95,0.00,,,0.12,WeatherCatV2.00B4475,2014-10-01 20:39:00,
2014-10-01 16:44:00,56.9,55.5,30.06,NE,49,1.0,5.0,95,0.00,,,0.12,WeatherCatV2.00B4475,2014-10-01 20:44:00,
2014-10-01 16:49:00,56.9,55.5,30.06,NE,46,2.0,4.0,95,0.00,,,0.12,WeatherCatV2.00B4475,2014-10-01 20:49:00,
2014-10-01 16:54:00,56.9,55.5,30.06,NE,44,1.0,4.0,95,0.00,,,0.12,WeatherCatV2.00B4475,2014-10-01 20:54:00,
2014-10-01 16:59:00,56.9,55.5,30.06,NNE,24,1.0,3.0,95,0.00,,,0.12,WeatherCatV2.00B4475,2014-10-01 20:59:00,
2014-10-01 17:04:00,56.8,55.7,30.07,ESE,107,2.0,3.0,96,0.00,,,0.12,WeatherCatV2.00B4475,2014-10-01 21:04:00,
2014-10-01 17:10:00,56.8,55.4,30.07,East,93,2.0,4.0,95,0.00,,,0.12,WeatherCatV2.00B4475,2014-10-01 21:10:00,
2014-10-01 17:14:00,56.8,55.4,30.07,North,355,1.0,2.0,95,0.00,,,0.12,WeatherCatV2.00B4475,2014-10-01 21:14:00,
2014-10-01 17:19:00,56.8,55.4,30.07,North,5,1.0,2.0,95,0.00,,,0.12,WeatherCatV2.00B4475,2014-10-01 21:19:00,
2014-10-01 17:24:00,56.8,55.4,30.07,NNE,18,1.0,3.0,95,0.00,,,0.12,WeatherCatV2.00B4475,2014-10-01 21:24:00,
2014-10-01 17:29:00,56.8,55.4,30.07,NNW,345,4.0,5.0,95,0.00,,,0.12,WeatherCatV2.00B4475,2014-10-01 21:29:00,
2014-10-01 17:34:00,56.8,55.4,30.07,NE,51,1.0,7.0,95,0.00,,,0.12,WeatherCatV2.00B4475,2014-10-01 21:34:00,
2014-10-01 17:37:00,56.8,55.4,30.07,ENE,57,2.0,5.0,95,0.00,,,0.12,WeatherCatV2.00B4475,2014-10-01 21:37:00,
2014-10-01 17:42:00,56.8,55.4,30.07,NE,52,1.0,2.0,95,0.00,,,0.12,WeatherCatV2.00B4475,2014-10-01 21:42:00,
2014-10-01 17:47:00,56.8,55.4,30.08,ESE,107,3.0,6.0,95,0.00,,,0.12,WeatherCatV2.00B4475,2014-10-01 21:47:00,
2014-10-01 17:52:00,56.7,55.3,30.08,NNE,24,1.0,4.0,95,0.00,,,0.12,WeatherCatV2.00B4475,2014-10-01 21:52:00,
2014-10-01 17:57:00,56.7,55.3,30.08,North,5,0.0,1.0,95,0.00,,,0.12,WeatherCatV2.00B4475,2014-10-01 21:57:00,
2014-10-01 18:02:00,56.7,55.6,30.08,North,5,0.0,1.0,96,0.00,,,0.12,WeatherCatV2.00B4475,2014-10-01 22:02:00,
2014-10-01 18:07:00,56.7,55.6,30.08,North,9,4.0,5.0,96,0.00,,,0.12,WeatherCatV2.00B4475,2014-10-01 22:07:00,
2014-10-01 18:12:00,56.6,55.5,30.08,NNE,30,4.0,7.0,96,0.00,,,0.12,WeatherCatV2.00B4475,2014-10-01 22:12:00,
2014-10-01 18:18:00,56.6,55.5,30.08,North,355,0.0,3.0,96,0.00,,,0.12,WeatherCatV2.00B4475,2014-10-01 22:18:00,
2014-10-01 18:23:00,56.6,55.5,30.08,North,355,1.0,3.0,96,0.00,,,0.12,WeatherCatV2.00B4475,2014-10-01 22:23:00,
2014-10-01 18:28:00,56.6,55.5,30.08,NE,44,4.0,5.0,96,0.00,,,0.12,WeatherCatV2.00B4475,2014-10-01 22:28:00,
2014-10-01 18:33:00,56.5,55.4,30.09,North,5,2.0,4.0,96,0.00,,,0.12,WeatherCatV2.00B4475,2014-10-01 22:33:00,
2014-10-01 18:38:00,56.5,55.4,30.09,NE,40,0.0,2.0,96,0.00,,,0.12,WeatherCatV2.00B4475,2014-10-01 22:38:00,
2014-10-01 18:43:00,56.5,55.4,30.09,NNW,334,4.0,4.0,96,0.00,,,0.12,WeatherCatV2.00B4475,2014-10-01 22:43:00,
2014-10-01 18:48:00,56.5,55.4,30.09,NNE,19,3.0,3.0,96,0.00,,,0.12,WeatherCatV2.00B4475,2014-10-01 22:48:00,
2014-10-01 18:53:00,56.5,55.4,30.09,NNE,15,1.0,1.0,96,0.00,,,0.12,WeatherCatV2.00B4475,2014-10-01 22:53:00,
2014-10-01 18:58:00,56.4,55.3,30.10,NNE,28,3.0,3.0,96,0.00,,,0.12,WeatherCatV2.00B4475,2014-10-01 22:58:00,
2014-10-01 19:03:00,56.4,55.3,30.10,NNE,22,1.0,2.0,96,0.00,,,0.12,WeatherCatV2.00B4475,2014-10-01 23:03:00,
2014-10-01 19:08:00,56.4,55.3,30.10,NW,317,2.0,3.0,96,0.00,,,0.12,WeatherCatV2.00B4475,2014-10-01 23:08:00,
2014-10-01 19:14:00,56.4,55.3,30.10,NW,315,1.0,1.0,96,0.00,,,0.12,WeatherCatV2.00B4475,2014-10-01 23:14:00,
2014-10-01 19:19:00,56.3,55.2,30.10,NNE,31,1.0,4.0,96,0.00,,,0.12,WeatherCatV2.00B4475,2014-10-01 23:19:00,
2014-10-01 19:24:00,56.3,55.5,30.10,NNE,27,3.0,4.0,97,0.00,,,0.12,WeatherCatV2.00B4475,2014-10-01 23:24:00,
2014-10-01 19:29:00,56.3,55.5,30.10,NE,40,1.0,3.0,97,0.00,,,0.12,WeatherCatV2.00B4475,2014-10-01 23:29:00,
2014-10-01 19:34:00,56.3,55.5,30.10,NNE,21,2.0,3.0,97,0.00,,,0.13,WeatherCatV2.00B4475,2014-10-01 23:34:00,
2014-10-01 19:35:00,56.3,55.5,30.10,North,0,2.0,2.0,97,0.00,,,0.13,WeatherCatV2.00B4475,2014-10-01 23:35:00,
2014-10-01 19:40:00,56.3,55.5,30.10,NNE,23,0.0,2.0,97,0.00,,,0.13,WeatherCatV2.00B4475,2014-10-01 23:40:00,
2014-10-01 19:45:00,56.3,55.5,30.10,North,5,3.0,4.0,97,0.00,,,0.13,WeatherCatV2.00B4475,2014-10-01 23:45:00,
2014-10-01 19:50:00,56.3,55.5,30.10,NNE,15,3.0,5.0,97,0.00,,,0.13,WeatherCatV2.00B4475,2014-10-01 23:50:00,
2014-10-01 19:55:00,56.3,55.5,30.10,NNW,329,1.0,3.0,97,0.00,,,0.13,WeatherCatV2.00B4475,2014-10-01 23:55:00,
2014-10-01 20:00:00,56.3,55.5,30.10,North,349,3.0,9.0,97,0.00,,,0.13,WeatherCatV2.00B4475,2014-10-02 00:00:00,
2014-10-01 20:05:00,56.3,55.5,30.10,NW,312,2.0,2.0,97,0.00,,,0.14,WeatherCatV2.00B4475,2014-10-02 00:05:00,
2014-10-01 20:10:00,56.3,55.5,30.10,West,270,6.0,7.0,97,0.00,,,0.14,WeatherCatV2.00B4475,2014-10-02 00:10:00,
2014-10-01 20:16:00,56.3,55.5,30.10,NNE,32,1.0,2.0,97,0.00,,,0.14,WeatherCatV2.00B4475,2014-10-02 00:16:00,
2014-10-01 20:21:00,56.3,55.5,30.10,NNE,32,0.0,2.0,97,0.00,,,0.14,WeatherCatV2.00B4475,2014-10-02 00:21:00,
2014-10-01 20:26:00,56.3,55.5,30.10,North,9,1.0,2.0,97,0.00,,,0.14,WeatherCatV2.00B4475,2014-10-02 00:26:00,
2014-10-01 20:31:00,56.3,55.5,30.10,North,5,3.0,8.0,97,0.00,,,0.14,WeatherCatV2.00B4475,2014-10-02 00:31:00,
2014-10-01 20:36:00,56.3,55.5,30.10,North,355,2.0,2.0,97,0.00,,,0.14,WeatherCatV2.00B4475,2014-10-02 00:36:00,
2014-10-01 20:41:00,56.3,55.5,30.10,NE,40,2.0,2.0,97,0.00,,,0.14,WeatherCatV2.00B4475,2014-10-02 00:41:00,
2014-10-01 20:46:00,56.3,55.5,30.10,ESE,107,1.0,3.0,97,0.00,,,0.14,WeatherCatV2.00B4475,2014-10-02 00:46:00,
2014-10-01 20:51:00,56.3,55.5,30.10,WNW,303,1.0,3.0,97,0.00,,,0.14,WeatherCatV2.00B4475,2014-10-02 00:51:00,
2014-10-01 20:56:00,56.4,55.6,30.10,NNE,27,2.0,5.0,97,0.00,,,0.14,WeatherCatV2.00B4475,2014-10-02 00:56:00,
2014-10-01 21:01:00,56.4,55.6,30.10,NE,43,2.0,3.0,97,0.00,,,0.14,WeatherCatV2.00B4475,2014-10-02 01:01:00,